Location: Berlin
(38.3226°N, 75.2177°W)
Time: 15:43:06
(UTC+00:00)

OAO 2 Rocket - Pass Details

Date: 26 October 2020
Orbit: 676 x 746 km, 35.0° (Epoch: 25 November)

Event Time Altitude Azimuth Distance (km) Brightness Sun altitude
Rises 00:00:28 0° 250° (WSW) 3,040 7.8 -22.5°
Reaches altitude 10° 00:02:55 10° 245° (WSW) 2,117 6.6 -23.0°
Maximum altitude 00:07:42 51° 170° (S) 845 3.6 -23.9°
Enters shadow 00:07:49 51° 165° (SSE) 846 3.5 -23.9°
